sat.trackr.live / text

‹ back to catalog

UNKNOWN

NORAD 81535

UNKNOWN UNKNOWN UNKNOWN

§ Identity

Operator
Country
Launch date
Launch site
Launch vehicle
Mass (kg)
RCS (m²)

External: N2YO · Heavens-Above

§ Orbital elements

Epoch: 2026-05-23T10:49:14.990016Z

Period
101.85 min
Inclination
98.1845°
Eccentricity
0.0234808
Mean motion
14.13810985 rev/d
Perigee alt
676.7 km
Apogee alt
1,016.0 km
Semi-major
7,224.5 km
B*
2.0906e-4
RAAN
217.3387°
Arg perigee
40.8105°
Mean anomaly
321.0394°
Rev number
41,024

§ Raw data

UNKNOWN1 81535U          26143.45086794  .00000475  00000+0  20906-3 0  99962 81535  98.1845 217.3387 0234808  40.8105 321.0394 14.13810985410246

JSON: /api/v1/satellites/81535 · /tle

For live sub-satellite position, see the globe view (requires WebGL).

§ Visibility from observer

Set your observer location to see the next 7 days of passes ≥ 10°. The values pass through the URL so the page stays shareable.

No JS? Fill the form by hand. The geolocation button needs JavaScript.